SUOMI NPP

Last updated on Sat Dec 13 2025 00:02:23 GMT+0000 (Coordinated Universal Time)

1 37849U 11061A 25346.27072577 .00000173 00000+0 10322-3 0 9998 2 37849 98.7773 283.6165 0002229 121.1690 238.9705 14.19514007731928
UTC large
Height (km)
Speed (km/s)
/
Latitude / Longitude
Inclination (degrees)
Orbital Period (minutes)
Azimuth
Elevation
Range (km)
Doppler Factor

Next 0 passes for location: London (51.5072 / 0.1276)

Sorry there are no passes over London.